Location: Fort Wayne
(41.1310°N, 85.1290°W)
Time: 13:10:22
(UTC-05:00)

Vanguard 3 - Visible Passes

Search period start: 19 February 2018 00:00
Search period end: 01 March 2018 00:00
Orbit: 508 x 3264 km, 33.3° (Epoch: 19 February)

Date Brightness Start Highest point End Pass type
(mag) Time Alt. Az. Time Alt. Az. Time Alt. Az.
19 Feb 8.8 20:46:15 10° WSW 20:48:20 17° SSW 20:48:20 17° SSW visible
20 Feb 8.2 19:32:54 10° WSW 19:35:46 21° S 19:38:50 11° SE visible
21 Feb 8.9 20:31:39 10° SW 20:33:33 13° SSW 20:33:59 13° S visible
22 Feb 8.5 19:17:44 10° WSW 19:20:16 17° SSW 19:23:00 10° SSE visible
24 Feb 8.8 19:02:37 10° SW 19:04:43 14° SSW 19:06:51 10° SSE visible
